Location: Berg
(47.2344°N, 9.5296°E)
Time: 11:58:59
(UTC+00:00)

SJ-11-01 - Pass Details

Date: 24 January 2021
Orbit: 684 x 700 km, 98.0° (Epoch: 07 March)

Event Time Altitude Azimuth Distance (km) Brightness Sun altitude
Rises 18:10:50 0° 167° (SSE) 3,053 7.6 -20.0°
Reaches altitude 10° 18:13:05 10° 169° (S) 2,139 6.8 -20.4°
Maximum altitude 18:17:46 81° 257° (WSW) 704 4.3 -21.1°
Drops below altitude 10° 18:22:29 10° 345° (NNW) 2,147 6.9 -21.9°
Sets 18:24:44 0° 346° (NNW) 3,066 7.7 -22.3°
